Change the Weather History Date:

Tuesday, February 11, 2014

  Actual Average Record
Temperature  
Mean Temperature 48 °F 64 °F  
Max Temperature 55 °F 73 °F 93 °F (1995)
Min Temperature 40 °F 54 °F 32 °F (1973)
Degree Days  
Heating Degree Days 17 4  
Month to date heating degree days 121 51  
Since 1 July heating degree days 679 450  
Cooling Degree Days 0 3  
Month to date cooling degree days 12 28  
Year to date cooling degree days 33 87  
Moisture  
Dew Point 41 °F    
Average Humidity 93    
Maximum Humidity 100    
Minimum Humidity 85    
Precipitation  
Precipitation 0.04 in 0.04 in 1.41 in (1999)
Month to date precipitation 0.08 0.50  
Year to date precipitation 0.76 1.77  
Sea Level Pressure  
Sea Level Pressure 30.11 in    
Wind  
Wind Speed 15 mph (NNW)    
Max Wind Speed 22 mph    
Max Gust Speed 31 mph    
Visibility 8 miles    
Events Rain    
T = Trace of Precipitation, MM = Missing Value Source: NWS Daily Summary

Daily Weather History Graph

Daily Weather History Graph

Search for Another Location

Airport or City:

Trip Planner

Search our weather history database for the weather conditions in past years. The results will help you decide how hot, cold, wet, or windy it might be!

Date:

Astronomy

Feb. 11, 2014 Rise Set
Actual Time 7:07 AM CST 6:20 PM CST
Civil Twilight 6:44 AM CST 6:44 PM CST
Nautical Twilight 6:16 AM CST 7:11 PM CST
Astronomical Twilight 5:49 AM CST 7:38 PM CST
Moon 3:49 PM CST (2/11) 4:37 AM CST (2/11)
Length of Visible Light 11h 59m
Length of Day
11h 12m
Waxing Gibbous, 91% of the Moon is Illuminated
Feb 11
Waxing Gibbous
Feb 14
Full
Feb 22
Last Quarter
Mar 1
New
Mar 8
First Quarter

Hourly Weather History & Observations

Time (CST) Temp. Windchill Dew Point Humidity Pressure Visibility Wind Dir Wind Speed Gust Speed Precip Events Conditions
12:53 AM 53.1 °F - 52.0 °F 96% 30.00 in 8.0 mi North 15.0 mph 20.7 mph N/A   Overcast
1:53 AM 52.0 °F - 51.1 °F 97% 30.00 in 10.0 mi North 12.7 mph 20.7 mph N/A   Overcast
2:53 AM 51.1 °F - 50.0 °F 96% 30.00 in 9.0 mi North 16.1 mph 21.9 mph N/A   Overcast
3:53 AM 51.1 °F - 48.9 °F 92% 30.00 in 10.0 mi North 17.3 mph 21.9 mph 0.00 in   Overcast
4:53 AM 50.0 °F - 48.9 °F 96% 30.01 in 10.0 mi North 12.7 mph 23.0 mph N/A   Overcast
5:53 AM 48.9 °F - 48.0 °F 97% 30.01 in 10.0 mi North 16.1 mph 25.3 mph 0.00 in   Overcast
6:53 AM 48.9 °F - 46.9 °F 93% 30.04 in 10.0 mi NNW 13.8 mph - 0.00 in   Overcast
7:53 AM 46.9 °F - 46.0 °F 97% 30.07 in 2.5 mi North 16.1 mph 23.0 mph 0.00 in   Overcast
8:00 AM 46.4 °F 39.5 °F 46.4 °F 100% 30.08 in 7.0 mi North 17.3 mph 26.5 mph N/A   Overcast
8:13 AM 46.4 °F 40.1 °F 46.4 °F 100% 30.08 in 2.5 mi NNW 15.0 mph 23.0 mph N/A   Overcast
8:41 AM 46.4 °F 39.0 °F 44.6 °F 93% 30.10 in 2.5 mi NNW 19.6 mph 27.6 mph 0.00 in   Overcast
8:53 AM 46.0 °F 39.6 °F 44.1 °F 93% 30.11 in 4.0 mi NNW 15.0 mph 23.0 mph 0.00 in Rain Light Rain
9:53 AM 45.0 °F 37.6 °F 43.0 °F 93% 30.13 in 10.0 mi NNW 17.3 mph 28.8 mph 0.00 in   Overcast
10:53 AM 45.0 °F 37.4 °F 43.0 °F 93% 30.14 in 10.0 mi NNW 18.4 mph 27.6 mph N/A   Overcast
11:53 AM 44.1 °F 36.8 °F 41.0 °F 89% 30.15 in 10.0 mi NNW 16.1 mph 24.2 mph N/A   Overcast
12:27 PM 42.8 °F 34.8 °F 39.2 °F 87% 30.15 in 3.0 mi NW 17.3 mph 24.2 mph 0.00 in Rain Light Rain
12:53 PM 42.1 °F 34.2 °F 39.9 °F 92% 30.13 in 3.0 mi NNW 16.1 mph 27.6 mph 0.01 in Rain Light Rain
1:02 PM 42.8 °F 35.4 °F 41.0 °F 93% 30.13 in 2.0 mi NNW 15.0 mph 23.0 mph 0.00 in Rain Light Rain
1:53 PM 42.1 °F 34.5 °F 39.9 °F 92% 30.12 in 2.0 mi NNW 15.0 mph 23.0 mph 0.02 in Rain Light Rain
2:23 PM 41.0 °F 32.5 °F 39.2 °F 93% 30.11 in 5.0 mi NNW 17.3 mph 24.2 mph 0.00 in Rain Light Rain
2:53 PM 42.1 °F 34.2 °F 39.9 °F 92% 30.10 in 5.0 mi NNW 16.1 mph 25.3 mph 0.00 in   Overcast
3:14 PM 42.8 °F 34.8 °F 39.2 °F 87% 30.11 in 10.0 mi NNW 17.3 mph 25.3 mph N/A   Overcast
3:22 PM 42.8 °F 34.8 °F 39.2 °F 87% 30.10 in 10.0 mi NNW 17.3 mph 24.2 mph N/A   Overcast
3:32 PM 41.0 °F 31.9 °F 39.2 °F 93% 30.10 in 10.0 mi NNW 19.6 mph 26.5 mph N/A   Overcast
3:53 PM 41.0 °F 32.5 °F 37.9 °F 89% 30.10 in 10.0 mi NNW 17.3 mph 24.2 mph N/A   Overcast
4:35 PM 41.0 °F 32.8 °F 37.4 °F 87% 30.10 in 10.0 mi NNW 16.1 mph 23.0 mph 0.00 in Rain Light Rain
4:47 PM 41.0 °F 34.7 °F 39.2 °F 93% 30.10 in 2.0 mi NNW 10.4 mph 20.7 mph 0.00 in Rain Light Rain
4:53 PM 39.9 °F 31.4 °F 39.0 °F 97% 30.10 in 2.0 mi NNW 16.1 mph 25.3 mph 0.00 in Rain Light Rain
5:03 PM 39.2 °F 31.2 °F 37.4 °F 93% 30.11 in 2.0 mi NNW 13.8 mph 26.5 mph 0.00 in Rain Light Rain
5:53 PM 39.9 °F 32.5 °F 37.9 °F 93% 30.12 in 2.0 mi NNW 12.7 mph 23.0 mph 0.01 in Rain Light Rain
6:00 PM 39.2 °F 31.6 °F 37.4 °F 93% 30.12 in 10.0 mi NNW 12.7 mph - 0.00 in   Overcast
6:53 PM 39.9 °F 32.5 °F 37.0 °F 89% 30.14 in 10.0 mi NNW 12.7 mph 20.7 mph 0.00 in   Overcast
7:00 PM 39.2 °F 31.6 °F 37.4 °F 93% 30.14 in 10.0 mi NNW 12.7 mph - N/A   Overcast
7:23 PM 39.2 °F 31.6 °F 37.4 °F 93% 30.15 in 10.0 mi NNW 12.7 mph 23.0 mph N/A   Overcast
7:41 PM 41.0 °F 34.3 °F 37.4 °F 87% 30.16 in 10.0 mi NNW 11.5 mph 20.7 mph N/A   Overcast
7:48 PM 41.0 °F 33.9 °F 37.4 °F 87% 30.17 in 10.0 mi NNW 12.7 mph - N/A   Overcast
7:53 PM 39.9 °F 31.8 °F 37.0 °F 89% 30.17 in 10.0 mi NNW 15.0 mph 19.6 mph N/A   Overcast
8:53 PM 39.9 °F 32.5 °F 37.0 °F 89% 30.19 in 10.0 mi NNW 12.7 mph 23.0 mph N/A   Overcast
9:19 PM 41.0 °F 33.5 °F 35.6 °F 81% 30.19 in 10.0 mi NNW 13.8 mph 20.7 mph N/A   Overcast
9:36 PM 41.0 °F 34.7 °F 35.6 °F 81% 30.20 in 10.0 mi NNW 10.4 mph 25.3 mph N/A   Overcast
9:53 PM 39.9 °F 32.1 °F 36.0 °F 86% 30.20 in 10.0 mi NNW 13.8 mph 21.9 mph N/A   Overcast
10:53 PM 39.9 °F 32.1 °F 36.0 °F 86% 30.19 in 10.0 mi NNW 13.8 mph 18.4 mph N/A   Overcast
11:53 PM 39.9 °F 32.9 °F 37.0 °F 89% 30.17 in 10.0 mi NNW 11.5 mph - N/A   Overcast